{"data":{"norad_id":55671,"intl_designator":"2023-021AV","name":"STARLINK-5460","alt_names":[],"object_type":"PAYLOAD","status":"ACTIVE","operator":null,"country":"US","launch_date":"2023-02-17","launch_site_code":"AFWTR","launch_vehicle":null,"mission":null,"orbit_class":"UNKNOWN","rcs_meters":null,"size_class":null,"mass_kg":null,"dimensions":null,"purposes":["comms"],"wikipedia_slug":null,"has_3d_model":false,"image_url":null,"decayed_at":null,"tle_current":{"epoch":"2026-05-24T23:00:38.090016Z","epoch_age_seconds":81794,"freshness":"FRESH","line1":"1 55671U 23021AV  26144.95877419  .00000541  00000+0  53134-4 0  9998","line2":"2 55671  69.9990 332.3539 0002850 269.2852  90.7981 14.98332618180700","mean_motion":14.98332618,"eccentricity":0.000285,"inclination_deg":69.999,"raan_deg":332.3539,"arg_perigee_deg":269.2852,"mean_anomaly_deg":90.7981,"bstar":5.3134e-5,"rev_number":18070,"period_min":96.10683120028,"perigee_km":570.06699234059,"apogee_km":574.02859767374,"semimajor_km":6950.1847950072,"source":"CELESTRAK","updated_at":"2026-05-25T13:38:17.876332Z"}}}